EW2692 Weather Reports


Display with metric or nautical units.
time (UTC)temp
F
wind
direction
speed
MPH
gust
MPH
rain 1hr
in
rain 24hr
in
rain mn
in
humidity
%
barometer
mb
20260506110014 17 306 0.0 0.0 0.00 0.00 0.00 77 945.0
20260506104513 17 306 0.0 0.0 0.00 0.00 0.00 77 945.1
20260506103012 17 306 0.0 0.0 0.00 0.00 0.00 77 945.1
20260506101511 17 307 0.0 0.0 0.00 0.00 0.00 77 945.1
20260506100011 17 307 0.0 0.0 0.00 0.00 0.00 75 945.0
20260506094510 17 306 0.0 0.0 0.00 0.00 0.00 75 945.0
20260506093008 17 306 0.0 0.0 0.00 0.00 0.00 75 945.1
20260506091508 18 306 0.0 1.0 0.00 0.00 0.00 73 945.1
20260506090003 19 316 0.0 0.0 0.00 0.00 0.00 72 945.0
20260506084502 19 316 0.0 0.0 0.00 0.00 0.00 71 944.9
20260506083000 19 316 0.0 0.0 0.00 0.00 0.00 70 945.0
20260506081558 20 316 0.0 1.0 0.00 0.00 0.00 68 945.0
20260506073053 22 316 0.0 0.0 0.00 0.00 0.00 66 945.0
20260506071551 22 316 0.0 0.0 0.00 0.00 0.00 65 945.0
20260506061541 25 316 0.0 1.0 0.00 0.00 0.00 57 945.0
20260506044530 31 317 0.0 1.0 0.00 0.00 0.00 45 944.6
20260506043022 31 317 0.0 1.0 0.00 0.00 0.00 44 944.4
20260506041520 32 316 0.0 1.0 0.00 0.00 0.00 44 944.4
20260506040042 32 316 0.0 1.0 0.00 0.00 0.00 43 944.5
20260506034515 33 316 0.0 0.0 0.00 0.00 0.00 42 944.4
20260506033013 35 316 0.0 1.0 0.00 0.00 0.00 40 944.3
20260506031526 36 316 0.0 1.0 0.00 0.00 0.00 38 944.2
20260506030013 38 316 0.0 1.0 0.00 0.00 0.00 36 944.1
20260506024516 39 317 0.0 3.0 0.00 0.00 0.00 35 943.9
20260506023007 40 312 0.0 3.0 0.00 0.00 0.00 34 943.7
20260506021509 42 313 1.0 4.0 0.00 0.00 0.00 32 943.6
20260506020006 44 311 0.0 8.0 0.00 0.00 0.00 31 943.4
20260506014510 45 292 2.0 9.0 0.00 0.00 0.00 30 943.2
20260506013004 45 288 2.0 9.0 0.00 0.00 0.00 31 943.1
20260506011503 45 300 1.0 7.0 0.00 0.00 0.00 31 943.1
20260506010008 45 299 5.0 10.0 0.00 0.00 0.00 32 943.1
20260506004505 45 306 4.0 10.0 0.00 0.00 0.00 32 943.0
20260506003004 46 299 6.0 16.0 0.00 0.00 0.00 32 943.0
20260506001501 46 298 7.0 14.0 0.00 0.00 0.00 32 943.1
20260506000001 46 292 3.0 11.0 0.00 0.00 0.00 32 943.0
20260505234606 46 329 3.0 14.0 0.00 0.00 0.00 31 942.9
20260505233111 46 292 2.0 14.0 0.00 0.00 0.00 31 942.8
20260505231605 46 309 4.0 12.0 0.00 0.00 0.00 32 942.8
20260505230057 46 276 5.0 17.0 0.00 0.00 0.00 33 942.8
20260505224556 46 300 7.0 16.0 0.00 0.00 0.00 33 942.8
20260505223055 45 284 7.0 11.0 0.00 0.00 0.00 33 942.9
20260505221552 45 292 6.0 15.0 0.00 0.00 0.00 35 942.9
20260505220051 45 274 4.0 11.0 0.00 0.00 0.00 36 942.9
20260505214553 45 298 4.0 12.0 0.00 0.00 0.00 36 943.1
20260505213047 45 292 4.0 11.0 0.00 0.00 0.00 36 943.2
20260505211547 45 296 6.0 13.0 0.00 0.00 0.00 35 943.3
20260505210045 44 295 4.0 15.0 0.00 0.00 0.00 36 943.3
20260505204547 44 313 7.0 14.0 0.00 0.00 0.00 35 943.4
20260505203047 44 302 6.0 16.0 0.00 0.00 0.00 35 943.4
20260505201544 44 288 5.0 11.0 0.00 0.00 0.00 35 943.4
20260505200048 44 307 7.0 13.0 0.00 0.00 0.00 35 943.4
20260505194542 44 309 8.0 14.0 0.00 0.00 0.00 35 943.4
20260505193041 45 309 8.0 14.0 0.00 0.00 0.00 35 943.4
20260505191541 43 300 8.0 17.0 0.00 0.00 0.00 36 943.4
20260505190043 44 290 4.0 13.0 0.00 0.00 0.00 36 943.3
20260505184536 44 279 5.0 11.0 0.00 0.00 0.00 38 943.3
20260505183039 42 360 5.0 13.0 0.00 0.00 0.00 38 943.4
20260505181534 42 294 4.0 13.0 0.00 0.00 0.00 38 943.4
20260505180037 42 333 3.0 20.0 0.00 0.00 0.00 38 943.4
20260505174539 43 307 4.0 16.0 0.00 0.00 0.00 37 943.6
20260505173030 42 284 6.0 17.0 0.00 0.00 0.00 38 943.5
20260505171529 42 291 5.0 15.0 0.00 0.00 0.00 39 943.4
20260505170030 41 297 4.0 16.0 0.00 0.00 0.00 39 943.5
20260505164526 41 302 6.0 13.0 0.00 0.00 0.00 41 943.5
20260505163024 39 310 6.0 16.0 0.00 0.00 0.00 41 943.5
20260505161522 39 284 6.0 17.0 0.00 0.00 0.00 41 943.5
20260505153019 38 288 7.0 17.0 0.00 0.00 0.00 42 943.6
20260505151519 37 331 9.0 17.0 0.00 0.00 0.00 43 943.7
20260505130111 35 311 4.0 9.0 0.00 0.00 0.00 57 942.9
20260505124602 34 301 4.0 8.0 0.00 0.00 0.00 58 942.8
20260505123052 34 286 3.0 8.0 0.00 0.00 0.00 58 942.6
20260505121552 34 292 2.0 6.0 0.00 0.00 0.00 59 942.4
20260505120105 34 304 2.0 8.0 0.00 0.00 0.00 58 942.2
20260505114547 34 295 1.0 5.0 0.00 0.00 0.00 59 942.1
20260505113051 34 283 3.0 6.0 0.00 0.00 0.00 58 942.2
20260505111543 34 280 2.0 8.0 0.00 0.00 0.00 61 942.1